{"data":{"norad_id":49022,"epoch":"2026-09-20T23:16:39.467136Z","epoch_age_seconds":60724,"freshness":"FRESH","line1":"1 49022U 21064E   26263.96990124  .00000101  00000+0  13483-3 0  9992","line2":"2 49022  44.9984 153.7034 0008554 354.0635   6.0099 14.08564705267737","mean_motion":14.08564705,"eccentricity":0.0008554,"inclination_deg":44.9984,"raan_deg":153.7034,"arg_perigee_deg":354.0635,"mean_anomaly_deg":6.0099,"bstar":0.00013483,"rev_number":26773,"period_min":102.23172530793,"perigee_km":858.09227807462,"apogee_km":870.48261782017,"semimajor_km":7242.4244479474,"source":"CELESTRAK","updated_at":"2026-09-21T09:00:07.941630Z"}}